• In Latvia
  • List of Countries
  • For 7 days
  • Water Temperature
  • Satellite Maps
  • Weather Map
  • Weather Widgets
  • user-avatar
    Login

    Hourly Weather Sydney

    Today, 22 August, Tuesday

    Time Temperature Precipitation Wind Pressure Humidity
    00:00 +11°C° 0 mm 1 mps 762 mmHg 75%
    01:00 +11°C° 0 mm 1 mps 762 mmHg 76%
    02:00 +10°C° 0 mm 1 mps 762 mmHg 79%
    03:00 +9°C° 0 mm 2 mps 762 mmHg 82%
    04:00 +8°C° 0 mm 2 mps 762 mmHg 84%
    05:00 +8°C° 0 mm 2 mps 762 mmHg 84%
    06:00 +8°C° 0 mm 2 mps 763 mmHg 84%
    07:00 +8°C° 0 mm 2 mps 763 mmHg 83%
    08:00 +12°C° 0 mm 2 mps 763 mmHg 70%
    09:00 +15°C° 0 mm 2 mps 763 mmHg 56%
    10:00 +20°C° 0 mm 1 mps 763 mmHg 39%
    11:00 +20°C° 0 mm 2 mps 763 mmHg 36%
    12:00 +21°C° 0 mm 2 mps 763 mmHg 32%
    13:00 +23°C° 0 mm 2 mps 763 mmHg 28%
    14:00 +21°C° 0 mm 2 mps 763 mmHg 31%
    15:00 +21°C° 0 mm 2 mps 762 mmHg 33%
    16:00 +19°C° 0 mm 3 mps 762 mmHg 39%
    17:00 +17°C° 0 mm 2 mps 763 mmHg 48%
    18:00 +15°C° 0 mm 2 mps 763 mmHg 57%
    19:00 +13°C° 0 mm 2 mps 764 mmHg 66%
    20:00 +12°C° 0 mm 1 mps 764 mmHg 69%
    21:00 +12°C° 0 mm 1 mps 764 mmHg 72%
    22:00 +11°C° 0 mm 1 mps 765 mmHg 76%
    23:00 +11°C° 0 mm 1 mps 764 mmHg 78%

    Tomorrow, 23 August, Wednesday

    Time Temperature Precipitation Wind Pressure Humidity
    00:00 +9°C° 0 mm 2 mps 764 mmHg 81%
    01:00 +9°C° 0 mm 2 mps 764 mmHg 84%
    02:00 +9°C° 0 mm 2 mps 764 mmHg 84%
    03:00 +8°C° 0 mm 2 mps 764 mmHg 85%
    04:00 +8°C° 0 mm 2 mps 764 mmHg 86%
    05:00 +8°C° 0 mm 2 mps 764 mmHg 85%
    06:00 +8°C° 0 mm 2 mps 764 mmHg 84%
    07:00 +8°C° 0 mm 2 mps 764 mmHg 83%
    08:00 +12°C° 0 mm 2 mps 764 mmHg 71%
    09:00 +16°C° 0 mm 3 mps 764 mmHg 59%
    10:00 +19°C° 0 mm 3 mps 763 mmHg 47%
    11:00 +21°C° 0 mm 3 mps 763 mmHg 42%
    12:00 +22°C° 0 mm 3 mps 762 mmHg 37%
    13:00 +25°C° 0 mm 3 mps 762 mmHg 31%
    14:00 +25°C° 0 mm 4 mps 761 mmHg 33%
    15:00 +23°C° 0 mm 4 mps 761 mmHg 34%
    16:00 +23°C° 0 mm 4 mps 760 mmHg 36%
    17:00 +21°C° 0.1 mm 4 mps 761 mmHg 47%
    18:00 +19°C° 0.1 mm 4 mps 761 mmHg 58%
    19:00 +17°C° 0.1 mm 3 mps 761 mmHg 69%
    20:00 +16°C° 0.2 mm 3 mps 761 mmHg 68%
    21:00 +14°C° 0.2 mm 4 mps 762 mmHg 68%
    22:00 +13°C° 0.2 mm 4 mps 762 mmHg 68%
    23:00 +12°C° 0 mm 4 mps 762 mmHg 68%

    Day after tomorrow, 24 August, Thursday

    Time Temperature Precipitation Wind Pressure Humidity
    00:00 +10°C° 0 mm 5 mps 762 mmHg 68%
    01:00 +10°C° 0 mm 5 mps 762 mmHg 68%
    02:00 +9°C° 0 mm 5 mps 761 mmHg 68%
    03:00 +9°C° 0 mm 5 mps 761 mmHg 68%
    04:00 +8°C° 0 mm 5 mps 761 mmHg 68%
    05:00 +8°C° 0 mm 5 mps 762 mmHg 68%
    06:00 +8°C° 0 mm 5 mps 762 mmHg 68%
    07:00 +8°C° 0 mm 5 mps 762 mmHg 68%
    08:00 +11°C° 0.1 mm 6 mps 762 mmHg 63%
    09:00 +14°C° 0.1 mm 6 mps 762 mmHg 57%
    10:00 +16°C° 0.1 mm 7 mps 763 mmHg 52%
    11:00 +17°C° 0.2 mm 7 mps 762 mmHg 51%
    12:00 +17°C° 0.2 mm 8 mps 762 mmHg 49%
    13:00 +18°C° 0.2 mm 8 mps 761 mmHg 48%
    14:00 +17°C° 0.2 mm 8 mps 762 mmHg 51%
    15:00 +16°C° 0.2 mm 8 mps 762 mmHg 55%
    16:00 +15°C° 0.2 mm 8 mps 762 mmHg 58%
    17:00 +13°C° 0.2 mm 8 mps 763 mmHg 63%
    18:00 +12°C° 0.2 mm 7 mps 763 mmHg 67%
    19:00 +11°C° 0.2 mm 7 mps 764 mmHg 72%
    20:00 +11°C° 0.2 mm 7 mps 764 mmHg 72%
    21:00 +10°C° 0.2 mm 7 mps 765 mmHg 73%
    22:00 +10°C° 0.2 mm 7 mps 765 mmHg 74%
    23:00 +9°C° 0.1 mm 7 mps 765 mmHg 75%

    25 August, Friday

    Time Temperature Precipitation Wind Pressure Humidity
    00:00 +9°C° 0.1 mm 7 mps 765 mmHg 77%
    01:00 +8°C° 0.1 mm 7 mps 765 mmHg 78%
    02:00 +8°C° 0.2 mm 7 mps 765 mmHg 78%
    03:00 +6°C° 0.2 mm 7 mps 765 mmHg 79%
    04:00 +6°C° 0.2 mm 7 mps 766 mmHg 79%
    05:00 +6°C° 0.2 mm 7 mps 766 mmHg 77%
    06:00 +7°C° 0.2 mm 6 mps 767 mmHg 75%
    07:00 +5°C° 0.2 mm 6 mps 767 mmHg 74%
    08:00 +9°C° 0.1 mm 6 mps 767 mmHg 66%
    09:00 +11°C° 0.1 mm 6 mps 767 mmHg 59%
    10:00 +14°C° 0.1 mm 6 mps 768 mmHg 52%
    11:00 +15°C° 0.1 mm 6 mps 767 mmHg 49%
    12:00 +16°C° 0.1 mm 6 mps 767 mmHg 46%
    13:00 +17°C° 0.1 mm 6 mps 766 mmHg 43%
    14:00 +17°C° 0.1 mm 6 mps 766 mmHg 45%
    15:00 +17°C° 0.1 mm 6 mps 766 mmHg 47%
    16:00 +16°C° 0.1 mm 6 mps 766 mmHg 49%
    17:00 +15°C° 0 mm 5 mps 767 mmHg 59%
    18:00 +13°C° 0 mm 5 mps 767 mmHg 68%
    19:00 +11°C° 0 mm 4 mps 768 mmHg 78%
    20:00 +11°C° 0 mm 4 mps 768 mmHg 80%
    21:00 +10°C° 0 mm 4 mps 769 mmHg 82%
    22:00 +10°C° 0 mm 3 mps 769 mmHg 85%
    23:00 +9°C° 0 mm 3 mps 769 mmHg 85%

    26 August, Saturday

    Time Temperature Precipitation Wind Pressure Humidity
    00:00 +9°C° 0 mm 3 mps 769 mmHg 86%
    01:00 +8°C° 0 mm 3 mps 769 mmHg 86%
    02:00 +8°C° 0 mm 3 mps 768 mmHg 86%
    03:00 +8°C° 0 mm 3 mps 768 mmHg 85%
    04:00 +7°C° 0 mm 3 mps 768 mmHg 85%
    05:00 +8°C° 0 mm 3 mps 768 mmHg 83%
    06:00 +8°C° 0 mm 3 mps 769 mmHg 82%
    07:00 +8°C° 0 mm 3 mps 769 mmHg 80%
    08:00 +11°C° 0 mm 3 mps 769 mmHg 68%
    09:00 +14°C° 0 mm 3 mps 769 mmHg 56%
    10:00 +19°C° 0 mm 2 mps 769 mmHg 44%
    11:00 +20°C° 0 mm 2 mps 769 mmHg 40%
    12:00 +21°C° 0 mm 2 mps 768 mmHg 36%
    13:00 +23°C° 0 mm 2 mps 767 mmHg 31%
    14:00 +21°C° 0 mm 2 mps 767 mmHg 34%
    15:00 +20°C° 0 mm 3 mps 767 mmHg 36%
    16:00 +20°C° 0 mm 3 mps 767 mmHg 38%
    17:00 +18°C° 0 mm 3 mps 767 mmHg 49%
    18:00 +16°C° 0 mm 3 mps 768 mmHg 60%
    19:00 +12°C° 0 mm 3 mps 768 mmHg 72%
    20:00 +13°C° 0 mm 2 mps 768 mmHg 75%
    21:00 +12°C° 0 mm 2 mps 769 mmHg 78%
    22:00 +12°C° 0 mm 2 mps 769 mmHg 82%
    23:00 +10°C° 0 mm 2 mps 769 mmHg 84%

    27 August, Sunday

    Time Temperature Precipitation Wind Pressure Humidity
    00:00 +10°C° 0 mm 2 mps 769 mmHg 86%
    01:00 +9°C° 0 mm 3 mps 769 mmHg 88%
    02:00 +9°C° 0 mm 3 mps 768 mmHg 88%
    03:00 +9°C° 0 mm 3 mps 768 mmHg 88%
    04:00 +9°C° 0 mm 3 mps 768 mmHg 88%
    05:00 +9°C° 0 mm 3 mps 768 mmHg 87%
    06:00 +9°C° 0 mm 3 mps 769 mmHg 86%
    07:00 +9°C° 0 mm 3 mps 769 mmHg 85%
    08:00 +11°C° 0.1 mm 3 mps 769 mmHg 75%
    09:00 +14°C° 0.1 mm 3 mps 769 mmHg 65%
    10:00 +18°C° 0.1 mm 4 mps 769 mmHg 55%
    11:00 +19°C° 0.1 mm 4 mps 768 mmHg 51%
    12:00 +20°C° 0.1 mm 4 mps 768 mmHg 46%
    13:00 +21°C° 0.1 mm 4 mps 767 mmHg 42%
    14:00 +20°C° 0.1 mm 4 mps 767 mmHg 46%
    15:00 +19°C° 0.1 mm 5 mps 767 mmHg 50%
    16:00 +17°C° 0.1 mm 5 mps 767 mmHg 55%
    17:00 +16°C° 0.1 mm 5 mps 767 mmHg 63%
    18:00 +14°C° 0.1 mm 4 mps 768 mmHg 71%
    19:00 +13°C° 0.1 mm 4 mps 768 mmHg 80%
    20:00 +12°C° 0.2 mm 4 mps 768 mmHg 82%
    21:00 +12°C° 0.2 mm 3 mps 768 mmHg 84%
    22:00 +11°C° 0.2 mm 3 mps 768 mmHg 86%
    23:00 +11°C° 0.1 mm 3 mps 768 mmHg 87%
    Show more